Погода в Нью-Дели

Индия     28°36′48″N   77°12′28″E
темп.,
°C
ветер,
м/с
пор.,
м/с
влажн.,
%
обл.,
%
осадки,
мм/ч
давл.,
гПа
погр.,
м
17 мая, вт
вт1723:30+38юз41185 0.0 998534
02:30+34зюз24145 0.0 998201
05:30+35зсз49155 0.0 999616
08:30+37зсз45142 0.0 1001656
11:30+41ссз32100 0.0 10002175
14:30+43ссз3474 0.0 9975057
17:30+43ссз35610 0.0 9955056
20:30+41сз2475 0.0 996238
18 мая, ср
ср1823:30+38юз12856 0.0 99774
02:30+36з2595 0.0 998225
05:30+35сз24102 0.0 999192
08:30+38ссз34965 0.0 1001608
11:30+42ссз3375 0.0 10011365
14:30+44ссз2360 0.0 9984053
17:30+44юз2560 0.0 9963931
20:30+41юз34743 0.0 998406
19 мая, чт
чт1923:30+39з37890 0.0 998278
02:30+37с23912 0.0 998125
05:30+36з37102 0.0 999368
08:30+38зсз58100 0.0 1001646
11:30+44сз5770 0.0 10002110
14:30+46сз4660 0.0 9975206
17:30+46зсз6760 0.0 9955137
20:30+43зюз3571 0.0 996250
20 мая, пт
пт2023:30+40з41292 0.0 996620
02:30+38з715130 0.0 996757
05:30+37зсз514150 0.0 997788
08:30+38сз610170 0.0 999972
11:30+43сз47150 0.0 9982091
14:30+46зсз48976 0.0 9945295
17:30+46з59816 0.0 9924696
20:30+43з611100 0.0 9931349
21 мая, сб
сб2123:30+38св23150 0.1 995193
02:30+37с34160 0.0 994287
05:30+36юз36180 0.0 995321
08:30+36юз45270 0.0 9961073
11:30+40зюз35230 0.0 9952230
14:30+44з381324 0.0 9914818
17:30+44зюз61080 0.0 9895392
20:30+36всв792274 0.0 992617